Miscellaneous Local Product
Issued by NWS North Platte, NE

Home | Current Version | Previous Version | Text Only | Print | Product List | Glossary On
Versions: 1 2 3 4 5 6 7 8 9 10 11 12 13 14 15 16 17 18 19 20 21 22 23 24 25 26 27 28 29 30 31 32 33 34 35 36 37 38 39 40 41 42 43 44 45 46 47 48 49 50
000
AXUS43 KLBF 281710
MISLBF


WESTERN AND NORTH CENTRAL NEBRASKA HOURLY WEATHER ROUNDUP
NATIONAL WEATHER SERVICE NORTH PLATTE NE
1200 PM CDT SUN AUG 28 2016

NOTE: "FAIR" INDICATES FEW OR NO CLOUDS BELOW 12,000 FEET WITH NO
SIGNIFICANT WEATHER AND/OR OBSTRUCTIONS TO VISIBILITY.

NOTE: STATIONS NOT REPORTING VARIABLES SUCH AS SKY/WEATHER OR
PRESSURE ARE PROVIDED BY RAWS AND APRS NETWORKS AND ARE NOT UNDER
NATIONAL WEATHER SERVICE QUALITY CONTROL.

...OBSERVATIONS IN AND NEAR THE EASTERN PANHANDLE OF NEBRASKA...

CITY           SKY/WX    TMP DP  RH WIND       PRES   REMARKS
PINE RIDGE     SUNNY     83  50  31 SW9       30.03R
CHADRON        SUNNY     85  42  22 W7        30.03R
ALLIANCE       SUNNY     81  56  42 SE9       30.08S
SIDNEY         SUNNY     79  55  43 CALM      30.14S
CRESCENT LAKE    N/A     79  58  47 S6G13       N/A
$$

...OBSERVATIONS IN NORTHERN NEBRASKA AND FAR SOUTHERN SOUTH DAKOTA...

CITY           SKY/WX    TMP DP  RH WIND       PRES   REMARKS
WINNER         FAIR      89  65  44 S14       29.98F HX  91
THEDFORD       MOSUNNY   83  65  55 S14G21    30.08S
AINSWORTH      SUNNY     85  64  50 S14       30.03F
O`NEILL        MOSUNNY   86  65  48 S15G22    30.05S
ORD            SUNNY     82  65  56 S10       30.06F
BROKEN BOW     MOSUNNY   82  65  56 S13       30.08F
VALENTINE NWR    N/A     82  64  54 S9          N/A
BUTTE            N/A     86  68  54 S8G18       N/A
HALSEY           N/A     80  62  54 S7          N/A
EWING            N/A     86  71  61 S9G18       N/A  HX  92
$$

...OBSERVATIONS IN SOUTHWEST NEBRASKA AND FAR NORTHEAST COLORADO...

CITY           SKY/WX    TMP DP  RH WIND       PRES   REMARKS
HOLYOKE        FAIR      81  57  44 S5        30.11S
IMPERIAL       SUNNY     80  58  46 S8        30.11R
OGALLALA       MOSUNNY   81  59  46 CALM      30.09R
NORTH PLATTE   MOSUNNY   84  58  40 SW13G20   30.09S
MCCOOK         CLOUDY    77  58  51 S5        30.10F
LEXINGTON      MOSUNNY   79  63  57 S7        30.11S
STAPLETON        N/A     81  63  53 CALM        N/A
GOTHENBURG       N/A     77  61  57 S6          N/A
CALLAWAY         N/A     76  68  77 S10         N/A
$$

...OBSERVATIONS IN CENTRAL LINCOLN COUNTY AREA...

CITY           SKY/WX    TMP DP  RH WIND       PRES   REMARKS
N.P. AIRPORT   MOSUNNY   84  58  40 SW13G20   30.09S
N.P. DOWNTOWN    N/A     81  63  54 S3G12       N/A
N.P. SOUTHEAST   N/A     81  63  54 S6G13       N/A
N.P. HILLCREST   N/A     79  62  55 SW8         N/A
$$

...SOME OBSERVATIONS FROM AROUND THE REGION...

CITY           SKY/WX    TMP DP  RH WIND       PRES   REMARKS
DENVER         PTSUNNY   79  36  21 MISG      30.19S
LARAMIE        SUNNY     71  30  21 VRB5      30.31S
CHEYENNE       MOSUNNY   80  28  15 VRB3      30.23R
SCOTTSBLUFF    SUNNY     80  46  30 VRB5      30.10R
RAPID CITY     SUNNY     81  50  33 CALM      29.99R
BISMARCK       SUNNY     77  63  61 VRB5      29.91S
PIERRE         SUNNY     84  64  50 S10       29.92R
SIOUX FALLS    MOSUNNY   83  73  72 S15       30.07F
OMAHA          PTSUNNY   84  73  69 S9        30.10F HX  90
GRAND ISLAND   MOSUNNY   83  65  54 S8        30.10S
KANSAS CITY    MOSUNNY   86  71  60 SE6       30.14S HX  91
WICHITA        MOSUNNY   86  69  56 S7        30.11S HX  90
OKLAHOMA CITY  MOSUNNY   86  69  56 S8        30.11F HX  90
DALLAS         PTSUNNY   88  69  53 VRB5      30.08S HX  92
AMARILLO       MOSUNNY   76  59  55 VRB6      30.17S
DODGE CITY     CLOUDY    77  60  55 S8        30.14S
HAYS           MOSUNNY   81  61  50 S6        30.11R
GOODLAND       PTSUNNY   75  55  49 S12       30.13S
$$




USA.gov is the U.S. government's official web portal to all federal, state and local government web resources and services.